Wind_Speed
38 39 42 43 46 50 47 44 49 50 49 47 47 48 47 46 47 44 40 41 40 42 43 44 46 45 45 45 44 43 44 46 47 47 48 51 51 51 51 52 51 51 48
45 46 45 45 48 51 50 50 52 51 49 49 50 50 50 49 46 42 40 39 38 42 44 44 44 43 43 44 46 47 46 47 47 48 50 51 52 52 53 51 48 46 45
39 41 45 45 49 53 54 53 52 51 50 51 51 49 49 49 46 42 44 42 42 43 42 43 42 43 45 47 47 48 47 47 49 51 52 54 55 53 50 48 47 44 44
36 40 47 47 47 51 58 55 53 51 52 52 51 49 50 48 48 47 48 46 45 44 44 45 45 45 46 47 47 47 48 49 51 53 54 56 56 56 54 49 47 46 44
35 36 40 40 42 48 50 52 52 52 51 52 50 51 50 50 50 51 51 55 46 45 45 47 46 45 45 47 49 50 51 52 54 56 57 58 58 49 52 51 45 47 45
37 35 35 37 35 41 46 46 48 48 49 48 49 50 50 51 53 55 55 48 49 48 48 50 50 49 50 51 52 53 55 56 58 58 60 58 51 48 47 48 47 47 47
41 36 33 37 37 38 41 41 43 44 45 46 48 48 48 53 56 53 59 53 53 52 53 54 54 55 55 56 56 57 59 61 61 63 60 56 46 45 48 52 50 50 50
47 45 45 44 44 44 44 43 45 45 46 46 48 49 51 52 56 55 54 58 57 58 58 59 58 59 59 60 61 62 64 65 65 65 55 44 45 46 51 52 52 53 51
48 47 44 45 46 47 48 49 52 52 51 48 49 50 56 58 59 58 58 56 59 60 61 62 67 65 64 64 66 65 64 66 67 54 47 46 47 50 52 53 52 51 50
61 56 54 53 51 51 52 53 53 51 50 51 50 51 52 54 56 59 59 62 65 65 63 64 63 63 63 65 64 65 68 70 62 52 49 50 48 51 52 50 51 51 53
56 55 55 52 45 47 51 55 57 57 57 59 57 54 56 56 57 60 62 65 67 64 68 69 68 66 68 69 69 73 70 66 58 61 61 49 51 51 50 49 50 53 54
55 54 54 53 47 45 46 48 50 49 51 53 55 54 55 56 60 62 63 65 66 67 67 68 67 66 66 70 67 69 66 62 58 59 50 50 50 48 50 52 51 50 49
50 52 50 52 50 50 51 53 51 48 47 46 50 51 53 55 58 60 62 64 65 66 65 63 62 59 63 65 68 66 63 61 63 55 50 49 49 49 51 49 47 48 51
52 51 51 51 46 43 43 46 48 49 52 50 49 51 53 57 57 56 58 60 64 67 66 66 65 64 63 58 62 65 67 68 63 50 51 51 49 50 46 46 49 51 55
49 54 53 54 56 50 52 50 60 64 62 61 58 54 53 53 53 54 55 56 58 59 60 58 58 62 65 64 61 68 72 71 54 55 51 51 47 42 46 49 51 53 58
71 68 59 55 55 57 59 60 61 58 59 58 57 57 56 55 54 52 48 49 51 51 53 52 53 60 64 65 68 74 61 60 53 53 53 45 43 47 50 50 53 58 64
71 65 62 62 59 61 63 62 59 59 58 58 59 60 59 59 59 55 54 53 53 53 51 56 56 62 66 74 76 66 56 56 55 53 47 42 47 51 47 53 57 61 63
66 68 71 71 69 65 63 62 64 66 63 65 66 65 66 65 63 62 62 63 60 57 54 56 61 63 67 68 66 63 57 58 54 44 39 45 49 47 50 55 59 63 62
56 64 61 58 59 60 61 61 65 67 66 67 67 68 69 64 58 55 53 55 55 55 58 61 67 70 67 68 63 55 50 47 40 34 41 45 46 50 56 58 62 62 61
50 50 62 60 56 53 55 56 60 61 60 65 63 61 62 53 52 51 50 50 56 57 56 60 62 68 65 59 50 41 42 37 32 38 43 47 52 54 56 58 60 61 63
45 48 50 50 52 51 48 49 49 50 53 52 51 57 54 53 52 50 48 52 58 60 63 64 69 61 46 38 36 36 32 32 38 45 48 50 54 55 57 58 60 63 66
41 46 48 47 47 47 45 41 38 41 41 42 41 39 41 42 46 44 49 55 56 63 66 64 49 32 29 33 34 33 32 38 44 49 53 53 52 53 54 59 62 67 70
39 41 43 43 35 34 33 36 33 32 28 32 33 33 37 39 37 47 47 44 48 43 28 20 20 24 29 31 31 35 39 44 47 49 49 51 51 54 57 62 67 70 73
32 32 34 31 30 31 30 28 31 31 18 26 31 27 16 21 20 13 25 19 13 11 11 17 24 28 27 30 36 40 44 46 46 47 48 50 53 56 61 66 70 72 72
28 33 34 31 30 27 25 27 26 18 17 14 21 20 20 23 24 26 24 19 15 17 18 21 25 28 32 35 39 41 42 43 43 42 47 53 56 62 65 69 72 71 64
19 21 27 29 31 27 25 25 25 19 18 24 17 18 21 24 26 20 19 19 20 22 24 27 29 31 36 38 37 37 38 40 43 46 53 58 61 64 68 71 69 62 58
Wind_Direction
264 257 256 253 255 255 252 257 261 262 263 266 267 269 270 272 272 276 275 275 276 273 271 269 269 273 275 276 277 278 279 280 281 282 284 288 293 297 298 301 303 305 307
264 258 253 252 251 254 252 251 253 258 261 263 266 267 267 269 272 275 275 273 271 272 271 271 273 274 274 274 276 278 279 280 281 283 285 288 294 299 298 300 303 302 301
258 254 255 253 253 254 254 252 252 254 258 259 260 261 265 266 269 270 270 268 269 272 274 273 273 272 272 275 277 278 279 279 281 284 287 289 295 297 299 300 301 295 294
260 254 258 257 258 257 255 251 250 253 253 253 254 257 260 264 262 262 264 267 269 271 273 273 273 274 275 277 277 278 280 281 283 287 288 291 295 296 296 298 295 290 289
268 267 266 263 255 256 256 250 249 249 249 252 251 251 255 257 258 261 263 264 264 269 273 274 274 275 276 277 278 280 282 284 286 288 290 293 294 293 298 297 291 288 289
260 258 258 261 255 253 254 258 258 255 254 253 254 250 250 252 256 266 267 265 267 271 274 274 274 275 276 278 278 279 283 286 286 289 290 289 288 295 295 295 292 289 287
258 254 254 251 255 248 250 254 255 256 256 255 253 253 252 253 255 262 264 266 265 268 271 273 273 274 275 277 279 282 284 286 288 285 283 280 288 292 295 293 288 286 287
258 258 262 263 264 253 248 249 250 251 252 252 251 253 254 258 259 261 260 266 263 266 271 274 276 276 278 280 282 284 286 288 283 278 279 290 291 291 291 289 287 287 290
266 265 260 259 261 262 257 255 252 247 245 246 247 250 251 255 260 261 260 260 264 267 271 274 278 278 279 280 283 283 287 281 275 269 290 294 289 286 289 287 286 287 290
269 268 265 264 265 262 258 255 255 255 256 255 253 256 256 257 258 262 263 264 267 270 271 273 278 280 280 282 281 287 283 274 267 275 290 291 282 284 286 286 286 290 291
267 266 266 266 261 253 252 254 253 252 250 256 257 254 255 256 260 260 260 263 267 270 272 274 275 278 280 283 288 288 274 269 271 282 283 281 282 282 284 285 289 293 292
264 263 263 262 259 249 247 250 249 251 256 257 255 249 255 257 257 259 263 264 264 267 271 273 279 282 282 283 286 279 264 268 279 278 278 277 278 280 284 288 293 292 289
264 264 259 257 256 255 255 260 261 262 261 259 262 263 264 262 262 264 265 267 269 271 273 277 278 279 282 283 279 267 266 275 277 272 274 274 277 283 286 290 289 289 291
248 246 252 258 257 264 263 256 255 259 275 275 272 269 264 261 263 264 266 267 267 269 272 275 279 280 279 280 277 268 272 270 275 270 269 277 282 284 287 289 290 291 294
242 236 238 239 240 239 236 245 268 277 280 281 280 277 273 268 267 269 268 266 267 269 272 276 278 281 283 286 284 275 275 272 268 268 277 280 283 284 289 293 294 298 298
266 262 262 263 263 264 267 271 273 274 277 280 280 280 279 279 278 278 277 273 276 278 269 273 272 273 276 280 277 269 278 271 273 274 278 280 276 284 290 295 299 299 295
267 262 262 264 267 267 267 270 271 270 271 273 275 275 276 278 280 280 280 281 279 279 276 274 276 272 272 267 267 270 274 269 272 274 277 275 277 283 290 296 299 296 294
281 281 277 274 275 277 279 280 279 277 279 280 279 280 279 278 278 277 278 276 277 278 275 275 273 274 275 273 272 270 269 270 276 272 274 278 283 290 297 297 297 296 296
277 281 283 281 280 282 283 283 283 284 285 284 285 283 283 284 282 280 275 275 274 269 266 263 264 267 269 270 270 269 270 272 266 276 280 283 292 299 302 300 298 297 297
271 275 278 283 281 280 281 281 282 282 282 283 284 284 284 277 273 270 264 261 257 260 262 262 258 260 261 265 267 269 266 263 273 284 291 296 298 301 299 299 299 299 299
266 265 271 273 276 278 277 276 276 276 278 278 273 276 275 271 264 258 251 248 250 251 252 259 259 263 266 268 264 262 267 274 283 285 294 300 299 299 299 300 299 300 302
261 259 266 268 273 277 278 276 276 278 276 268 267 257 253 250 253 262 250 251 258 255 254 258 261 261 262 261 264 270 278 287 294 297 296 296 296 299 301 302 302 303 305
266 265 268 264 266 273 270 268 266 268 269 254 249 241 276 245 260 244 250 260 247 249 251 251 255 258 259 266 269 279 286 293 296 295 297 299 301 303 303 303 305 307 308
266 268 265 258 257 259 264 266 277 254 258 264 260 240 236 232 235 240 226 230 237 255 263 261 257 259 262 271 279 288 291 292 294 296 299 301 303 304 305 309 308 309 310
271 266 262 262 257 255 258 259 261 251 269 234 253 247 243 258 260 273 272 266 270 264 258 260 261 269 275 280 284 288 290 292 295 300 304 306 308 308 310 309 308 310 309
268 270 264 262 253 254 259 263 270 277 261 261 258 275 271 276 276 275 281 281 279 271 268 269 274 280 284 288 288 289 294 299 303 309 307 306 308 309 309 309 310 309 308
Height
5739 5738 5739 5742 5742 5741 5747 5749 5747 5750 5751 5753 5753 5753 5752 5753 5752 5753 5755 5753 5754 5753 5753 5752 5751 5751 5751 5750 5750 5749 5748 5747 5746 5745 5743 5740 5738 5736 5732 5729 5726 5723 5719
5726 5725 5728 5729 5732 5730 5734 5737 5737 5738 5740 5741 5742 5742 5741 5741 5742 5744 5744 5744 5744 5743 5743 5742 5742 5741 5741 5740 5740 5739 5738 5737 5736 5734 5732 5730 5728 5724 5720 5717 5714 5711 5708
5715 5714 5714 5719 5719 5720 5722 5723 5725 5727 5728 5729 5729 5730 5730 5731 5732 5734 5733 5733 5733 5733 5734 5732 5732 5731 5730 5730 5729 5728 5727 5726 5725 5723 5720 5716 5713 5711 5709 5705 5703 5699 5696
5706 5705 5701 5706 5709 5709 5708 5712 5713 5715 5716 5716 5717 5720 5720 5721 5721 5722 5722 5723 5723 5723 5722 5722 5721 5720 5719 5719 5718 5717 5717 5715 5714 5712 5708 5704 5701 5697 5696 5694 5690 5687 5684
5695 5696 5694 5695 5698 5697 5698 5700 5701 5702 5704 5704 5706 5707 5709 5710 5711 5711 5711 5712 5711 5711 5711 5710 5709 5709 5709 5708 5707 5706 5705 5704 5702 5699 5696 5692 5689 5685 5682 5679 5680 5675 5671
5685 5687 5687 5686 5689 5689 5689 5692 5693 5694 5694 5695 5696 5697 5698 5699 5700 5700 5701 5700 5699 5699 5699 5698 5698 5698 5697 5697 5696 5695 5693 5691 5688 5685 5682 5679 5676 5673 5670 5667 5664 5661 5660
5674 5676 5677 5677 5676 5679 5680 5681 5682 5683 5685 5687 5687 5687 5689 5688 5688 5689 5689 5688 5688 5687 5686 5686 5686 5686 5686 5685 5683 5682 5680 5677 5674 5672 5668 5665 5663 5660 5656 5653 5650 5647 5645
5662 5664 5666 5666 5666 5668 5670 5669 5670 5672 5672 5676 5678 5678 5679 5679 5678 5680 5679 5678 5677 5675 5674 5673 5674 5673 5673 5672 5670 5669 5666 5663 5660 5657 5655 5652 5650 5647 5642 5639 5637 5634 5631
5648 5649 5650 5652 5654 5655 5656 5658 5658 5658 5659 5661 5664 5666 5666 5666 5667 5667 5667 5667 5666 5665 5664 5662 5661 5661 5660 5658 5657 5655 5653 5649 5644 5642 5640 5639 5636 5634 5629 5625 5622 5620 5616
5633 5636 5637 5638 5639 5641 5642 5643 5644 5646 5647 5649 5650 5650 5651 5651 5652 5653 5654 5655 5654 5653 5652 5649 5650 5648 5647 5645 5642 5641 5638 5634 5631 5627 5625 5623 5620 5618 5615 5612 5610 5605 5602
5617 5620 5622 5623 5626 5628 5629 5629 5630 5631 5632 5634 5637 5638 5638 5638 5637 5639 5641 5642 5641 5641 5640 5639 5638 5637 5635 5632 5629 5626 5622 5620 5618 5616 5611 5607 5605 5603 5600 5598 5595 5591 5587
5603 5606 5608 5610 5612 5614 5615 5617 5619 5620 5621 5621 5622 5624 5623 5625 5624 5625 5626 5625 5627 5627 5627 5625 5625 5624 5621 5618 5615 5612 5608 5606 5603 5598 5597 5594 5590 5588 5586 5584 5580 5576 5573
5588 5591 5594 5596 5598 5600 5602 5604 5606 5608 5608 5609 5609 5611 5611 5612 5613 5613 5613 5612 5613 5612 5611 5612 5611 5609 5607 5605 5602 5599 5596 5593 5590 5586 5582 5579 5577 5573 5572 5568 5564 5561 5558
5573 5576 5578 5580 5582 5584 5586 5588 5591 5594 5595 5596 5597 5598 5599 5598 5600 5601 5600 5600 5600 5599 5598 5598 5597 5596 5593 5591 5589 5587 5584 5580 5577 5572 5568 5566 5563 5559 5556 5552 5550 5547 5543
5558 5561 5563 5565 5568 5571 5573 5575 5578 5578 5580 5581 5583 5584 5586 5586 5587 5587 5587 5586 5586 5586 5586 5585 5584 5582 5579 5577 5575 5572 5569 5567 5561 5557 5555 5552 5550 5547 5542 5538 5537 5532 5529
5545 5546 5547 5549 5553 5556 5559 5560 5562 5563 5564 5565 5565 5565 5567 5569 5571 5573 5573 5572 5573 5572 5572 5571 5570 5568 5566 5563 5560 5557 5554 5552 5548 5544 5540 5538 5537 5534 5529 5526 5522 5517 5513
5526 5530 5536 5537 5538 5539 5542 5544 5547 5548 5550 5551 5552 5552 5553 5555 5555 5556 5557 5557 5557 5556 5555 5556 5555 5553 5551 5545 5542 5539 5538 5536 5532 5530 5527 5526 5524 5520 5515 5511 5505 5501 5496
5508 5510 5515 5519 5523 5525 5525 5526 5528 5530 5533 5534 5535 5536 5538 5541 5541 5542 5543 5543 5542 5542 5540 5539 5538 5536 5533 5527 5523 5522 5521 5520 5518 5516 5514 5513 5510 5505 5502 5497 5491 5486 5480
5494 5496 5497 5500 5504 5505 5506 5509 5511 5510 5511 5514 5515 5516 5520 5521 5521 5522 5522 5522 5524 5524 5523 5522 5520 5519 5515 5510 5508 5506 5506 5506 5504 5502 5500 5499 5495 5491 5488 5482 5475 5469 5463
5484 5483 5482 5485 5484 5489 5490 5491 5493 5493 5493 5495 5495 5495 5499 5499 5499 5502 5503 5504 5504 5505 5505 5503 5502 5499 5495 5493 5492 5492 5492 5492 5491 5491 5488 5484 5480 5476 5469 5464 5459 5454 5448
5472 5471 5469 5470 5471 5474 5476 5476 5478 5478 5478 5478 5477 5478 5479 5480 5480 5480 5482 5484 5485 5487 5487 5485 5484 5483 5481 5480 5481 5482 5481 5481 5479 5479 5475 5471 5463 5460 5453 5449 5444 5437 5430
5458 5458 5456 5457 5458 5459 5460 5459 5462 5461 5461 5460 5460 5461 5461 5462 5462 5466 5468 5469 5471 5471 5470 5470 5469 5470 5471 5471 5471 5472 5471 5470 5467 5464 5462 5459 5450 5444 5439 5434 5426 5419 5410
5445 5444 5445 5446 5448 5449 5449 5448 5449 5449 5448 5447 5448 5451 5450 5452 5452 5452 5456 5455 5453 5455 5457 5459 5460 5462 5463 5462 5462 5462 5460 5458 5456 5452 5446 5442 5436 5430 5423 5418 5407 5398 5390
5435 5435 5435 5435 5437 5439 5440 5440 5440 5441 5442 5441 5440 5442 5444 5442 5444 5445 5444 5448 5447 5448 5450 5453 5455 5456 5455 5452 5451 5450 5449 5446 5442 5437 5432 5427 5422 5416 5409 5397 5390 5381 5371
5426 5427 5427 5428 5429 5430 5432 5432 5432 5432 5432 5432 5433 5435 5435 5436 5436 5438 5440 5441 5442 5444 5445 5446 5447 5446 5445 5444 5442 5440 5437 5433 5428 5423 5418 5414 5406 5399 5390 5383 5375 5365 5356
5420 5419 5419 5419 5420 5423 5424 5424 5424 5424 5423 5424 5425 5425 5427 5427 5430 5433 5434 5436 5436 5437 5437 5437 5437 5436 5435 5433 5431 5428 5425 5419 5414 5407 5405 5401 5392 5384 5376 5368 5358 5349 5341